Total_Precipitation_Accumulation
1.55 1.51 1.41 1.37 1.32 1.25 1.20 1.16 1.06 1.00 0.95 0.91 0.90 0.89 0.82 0.69 0.58 0.54 0.48 0.52 0.54 0.63 0.82 1.06 1.28 1.57 1.85 1.90 1.90 1.74 1.61 1.55 1.42 1.28 1.25 1.38 1.47 1.42 1.35 1.40 1.32 1.15 1.12
1.66 1.63 1.56 1.41 1.34 1.28 1.22 1.20 1.12 1.04 0.97 0.90 0.84 0.78 0.80 0.78 0.70 0.66 0.58 0.55 0.52 0.52 0.67 0.91 1.16 1.45 1.83 2.05 2.11 2.19 1.98 1.84 1.77 1.55 1.32 1.29 1.38 1.41 1.42 1.44 1.48 1.39 1.26
1.86 1.76 1.74 1.62 1.44 1.37 1.34 1.29 1.27 1.19 1.12 0.99 0.89 0.82 0.76 0.78 0.75 0.73 0.69 0.63 0.60 0.55 0.58 0.75 0.97 1.25 1.58 1.90 2.14 2.36 2.44 2.16 2.06 1.97 1.70 1.42 1.39 1.46 1.52 1.56 1.58 1.63 1.51
2.02 2.04 1.90 1.78 1.57 1.53 1.50 1.44 1.37 1.32 1.21 1.10 1.01 0.90 0.80 0.78 0.77 0.76 0.75 0.69 0.67 0.63 0.61 0.67 0.76 0.98 1.31 1.65 1.95 2.23 2.71 2.61 2.38 2.26 2.17 1.82 1.52 1.47 1.52 1.61 1.69 1.73 1.80
2.15 2.20 2.21 2.05 1.86 1.76 1.64 1.54 1.43 1.36 1.30 1.22 1.15 1.06 0.94 0.86 0.82 0.84 0.80 0.70 0.64 0.65 0.66 0.69 0.73 0.81 1.05 1.36 1.72 2.06 2.65 2.91 2.82 2.69 2.59 2.38 1.95 1.64 1.57 1.63 1.75 1.82 1.94
2.12 2.15 2.21 2.27 2.19 2.09 1.94 1.78 1.64 1.47 1.35 1.30 1.31 1.29 1.13 0.99 0.92 0.91 0.89 0.81 0.70 0.62 0.66 0.71 0.74 0.76 0.87 1.09 1.41 1.77 2.22 2.65 2.86 2.96 2.93 2.95 2.72 2.21 1.90 1.81 1.88 2.01 2.11
2.01 2.04 2.01 2.13 2.19 2.13 2.02 1.94 1.84 1.77 1.62 1.47 1.54 1.61 1.49 1.22 1.04 0.95 0.92 0.90 0.81 0.70 0.66 0.68 0.74 0.76 0.81 0.94 1.13 1.41 1.81 2.28 2.65 2.87 2.94 3.04 3.25 3.05 2.57 2.23 2.14 2.22 2.34
1.92 1.99 2.01 1.95 1.98 2.01 1.99 1.92 1.86 1.82 1.77 1.63 1.62 1.71 1.73 1.63 1.30 0.98 0.89 0.87 0.87 0.84 0.77 0.71 0.72 0.78 0.84 0.88 0.90 1.09 1.40 1.89 2.44 2.86 3.05 3.13 3.34 3.62 3.41 2.90 2.61 2.55 2.66
1.94 1.90 1.98 2.00 1.94 1.91 1.90 1.86 1.79 1.72 1.72 1.61 1.45 1.63 1.72 1.50 1.22 1.02 0.90 0.81 0.78 0.86 0.85 0.80 0.77 0.74 0.81 0.89 0.87 0.90 1.06 1.43 2.00 2.53 3.01 3.28 3.43 3.77 3.98 3.70 3.24 3.00 3.06
1.97 1.90 1.90 1.96 2.00 1.91 1.80 1.78 1.79 1.74 1.76 1.77 1.57 1.38 1.36 1.26 1.26 1.10 0.95 0.90 0.85 0.83 0.86 0.85 0.84 0.77 0.77 0.86 0.93 0.91 0.96 1.14 1.59 2.18 2.71 3.28 3.64 3.91 4.36 4.35 4.04 3.56 3.31
1.94 1.89 1.89 1.90 1.91 1.89 1.77 1.72 1.76 1.79 1.80 1.79 1.70 1.49 1.32 1.13 1.07 1.17 1.00 0.91 0.99 0.96 0.90 0.92 0.92 0.89 0.84 0.83 0.91 0.95 1.04 1.17 1.50 1.94 2.45 3.07 3.87 4.20 4.64 4.86 4.49 3.88 3.43
2.01 1.87 1.79 1.81 1.79 1.72 1.68 1.64 1.64 1.63 1.67 1.71 1.68 1.59 1.50 1.41 1.20 1.17 1.11 0.91 0.91 0.93 0.96 0.98 1.02 0.99 0.94 0.93 0.95 1.17 1.22 1.35 1.50 1.76 2.07 2.52 3.24 4.02 4.51 4.82 4.64 4.11 3.67
2.02 1.91 1.83 1.74 1.71 1.64 1.57 1.56 1.58 1.57 1.52 1.55 1.59 1.54 1.45 1.34 1.25 1.28 1.37 1.24 1.09 0.96 1.01 1.05 1.01 1.02 1.04 1.07 1.13 1.30 1.37 1.37 1.33 1.53 1.74 1.88 2.27 2.95 3.76 4.43 4.75 4.53 4.06
1.87 1.78 1.82 1.75 1.67 1.65 1.64 1.61 1.58 1.56 1.55 1.48 1.41 1.41 1.44 1.33 1.31 1.41 1.53 1.63 1.55 1.19 1.02 1.03 0.99 0.97 1.08 1.11 1.20 1.35 1.23 1.34 1.34 1.41 1.53 1.66 1.81 2.16 2.81 3.60 4.45 4.94 4.68
1.82 1.80 1.79 1.78 1.71 1.73 1.77 1.78 1.73 1.60 1.56 1.53 1.47 1.39 1.39 1.37 1.33 1.34 1.41 1.58 1.89 1.72 1.17 0.89 0.92 0.97 1.06 1.16 1.19 1.10 1.06 1.27 1.37 1.43 1.52 1.59 1.69 1.86 2.19 2.74 3.38 4.32 4.97
1.79 1.80 1.80 1.81 1.76 1.70 1.76 1.83 1.78 1.68 1.67 1.60 1.59 1.56 1.43 1.35 1.38 1.42 1.50 1.51 1.61 1.77 1.46 0.89 0.80 0.89 1.04 1.23 1.33 1.12 1.09 1.28 1.33 1.39 1.40 1.42 1.56 1.74 1.94 2.23 2.64 3.25 4.18
1.77 1.74 1.70 1.73 1.80 1.77 1.72 1.78 1.74 1.68 1.68 1.61 1.57 1.60 1.49 1.39 1.50 1.54 1.61 1.64 1.59 1.63 1.67 1.09 0.85 0.92 1.17 1.32 1.38 1.25 1.21 1.20 1.21 1.34 1.39 1.41 1.45 1.65 1.82 2.00 2.20 2.58 3.25
1.75 1.68 1.64 1.65 1.70 1.73 1.71 1.73 1.72 1.67 1.65 1.62 1.57 1.59 1.57 1.49 1.50 1.53 1.64 1.64 1.56 1.49 1.60 1.40 1.10 1.09 1.23 1.38 1.43 1.39 1.35 1.30 1.17 1.27 1.35 1.45 1.45 1.58 1.78 1.88 1.99 2.22 2.59
1.83 1.69 1.63 1.64 1.67 1.74 1.71 1.66 1.74 1.72 1.63 1.56 1.53 1.57 1.60 1.60 1.52 1.46 1.55 1.60 1.53 1.48 1.52 1.56 1.31 1.18 1.28 1.44 1.59 1.63 1.57 1.53 1.37 1.33 1.35 1.45 1.55 1.56 1.68 1.82 1.93 2.06 2.19
1.84 1.75 1.62 1.59 1.65 1.78 1.79 1.76 1.83 1.79 1.67 1.54 1.44 1.44 1.52 1.65 1.67 1.65 1.65 1.61 1.63 1.72 1.70 1.70 1.53 1.37 1.40 1.53 1.71 1.81 1.84 1.77 1.66 1.48 1.49 1.55 1.63 1.68 1.66 1.67 1.68 1.75 1.89
1.65 1.67 1.68 1.61 1.64 1.87 2.09 2.22 2.10 1.83 1.64 1.55 1.38 1.29 1.38 1.66 1.88 2.04 2.08 1.91 1.92 2.10 2.07 2.02 1.88 1.67 1.54 1.61 1.75 1.76 1.87 1.83 1.82 1.69 1.59 1.59 1.58 1.55 1.55 1.57 1.60 1.62 1.70
1.65 1.63 1.67 1.64 1.61 1.79 2.24 2.46 2.08 1.69 1.54 1.49 1.43 1.29 1.31 1.59 1.78 1.96 2.12 2.08 2.08 2.27 2.39 2.32 2.15 1.86 1.52 1.41 1.50 1.75 2.01 2.22 2.21 1.90 1.72 1.74 1.58 1.62 1.57 1.47 1.61 1.68 1.70
1.65 1.63 1.62 1.62 1.59 1.65 2.05 2.27 2.03 1.67 1.51 1.41 1.35 1.31 1.34 1.44 1.61 1.63 1.80 1.88 1.86 2.01 2.25 2.35 2.32 1.87 1.62 1.52 1.77 2.06 2.11 2.23 2.13 2.02 2.03 2.14 1.81 1.73 1.62 1.62 1.74 1.69 1.75
1.57 1.57 1.59 1.56 1.53 1.60 1.94 2.18 2.01 1.69 1.58 1.48 1.42 1.33 1.26 1.30 1.45 1.64 1.75 1.74 1.63 1.67 1.88 2.06 2.26 2.06 1.84 1.87 2.22 2.55 2.67 2.66 2.37 2.20 2.16 2.44 2.07 1.83 1.72 1.69 1.78 1.67 1.67
1.56 1.51 1.49 1.54 1.50 1.52 1.86 2.21 2.07 1.72 1.65 1.54 1.49 1.39 1.26 1.20 1.45 1.67 1.63 1.60 1.51 1.53 1.66 1.88 2.05 2.12 2.14 2.30 2.62 3.08 3.29 3.29 2.99 2.58 2.32 2.39 2.27 2.09 2.08 2.07 2.00 1.88 1.68
1.48 1.49 1.45 1.46 1.45 1.43 1.70 2.12 2.22 1.76 1.64 1.54 1.51 1.44 1.50 1.45 1.58 1.61 1.49 1.57 1.69 1.55 1.45 1.50 1.57 1.62 1.66 1.81 2.27 2.75 3.17 3.35 3.12 2.98 2.54 2.36 2.35 2.39 2.86 2.64 2.24 1.92 1.74